This is the latest recevied weather packets stored in our database for station/object JF2ZGN-13. If no packets are shown the sender has not sent any weather packets the latest 10 day(s).
| Time | Temp. | Humidity | Pressure | Rain* | Wind** | Luminosity | Snow |
|---|---|---|---|---|---|---|---|
| 1778165966 | 15° C | 80% | 904.6 hPa | 0.51 mm | - | - | - |
| 1778165365 | 14.44° C | 80% | 904.6 hPa | 0.51 mm | - | - | - |
| 1778164765 | 14.44° C | 79% | 904.7 hPa | 0.51 mm | - | - | - |
| 1778164164 | 15° C | 78% | 904.8 hPa | 0.51 mm | - | - | - |
| 1778163564 | 15° C | 78% | 905 hPa | 0.51 mm | - | - | - |
| 1778162964 | 15° C | 76% | 905.2 hPa | 0.51 mm | - | - | - |
| 1778162363 | 15° C | 76% | 905.4 hPa | 0.51 mm | - | - | - |
| 1778161762 | 15° C | 75% | 905.5 hPa | 0.51 mm | - | - | - |
| 1778161162 | 15° C | 75% | 905.6 hPa | 0.51 mm | - | - | - |
| 1778160562 | 15° C | 74% | 905.5 hPa | 0.51 mm | - | - | - |
| 1778159962 | 15° C | 74% | 905.6 hPa | 0.51 mm | - | - | - |
| 1778159361 | 15.56° C | 74% | 905.7 hPa | 0.51 mm | - | - | - |
| 1778158760 | 15.56° C | 70% | 905.8 hPa | 0.51 mm | - | - | - |
| 1778158160 | 15.56° C | 69% | 905.7 hPa | 0.51 mm | - | - | - |
| 1778156959 | 15.56° C | 71% | 905.9 hPa | 0.51 mm | - | - | - |
| 1778156358 | 16.11° C | 67% | 905.8 hPa | 0.51 mm | - | - | - |
| 1778155758 | 16.11° C | 66% | 905.9 hPa | 0.51 mm | - | - | - |
| 1778155158 | 16.11° C | 68% | 906 hPa | 0.51 mm | - | - | - |
| 1778154557 | 15.56° C | 67% | 906 hPa | 0.51 mm | - | - | - |
| 1778153957 | 15.56° C | 70% | 906 hPa | 0.51 mm | - | - | - |
| 1778153356 | 15° C | 75% | 905.9 hPa | 0.51 mm | - | - | - |
| 1778152756 | 15.56° C | 74% | 905.8 hPa | 0.51 mm | - | - | - |
| 1778152155 | 15.56° C | 75% | 905.8 hPa | 0.51 mm | - | - | - |
| 1778151554 | 15.56° C | 75% | 905.7 hPa | 0.51 mm | - | - | - |
| 1778150955 | 15.56° C | 74% | 905.7 hPa | 0.51 mm | - | - | - |
* Rain since midnight (hover to see other rain measurements)
** Current wind speed in m/s (hover to see current wind gust speed)